[[{"header":{"parameterUnit":"m.s-1","parameterCategory":1,"la1":30.2991,"la2":30.254,"lo1":-89.0895,"lo2":-89.0444,"dy":0.0017,"dx":0.0017,"nx":28,"ny":28,"refTime":"2025-07-22T21:00:00:Z","depth":0,"parameterNumber":2,"parameterNumberName":"U-component_of_WINDS"},"data":[0,0,0,0,0,0,0,0,0,0,0,0,0,0,0,0,0,0,0,0,0,0,0,0,0,0,0,0,0,0,0,0,0,0,0,0,0,0,0,0,0,0,0,0,0,0,0,0,0,0,0,0,0,0,0,0,0,0,1.3426,1.3427,0,1.345,1.345,1.345,1.3408,1.3407,1.3405,1.3404,1.3429,1.3431,1.3433,0,0,0,0,0,0,0,0,0,0,0,0,0,1.3348,1.335,1.3426,1.3427,1.3427,1.345,1.345,1.345,1.3408,1.3406,1.3405,1.3403,1.3428,1.3431,1.3433,0,0,0,0,0,0,0,0,0,0,0,0,0,1.3378,1.335,1.3426,1.3409,1.3407,1.345,1.345,1.345,1.3409,1.3406,1.3404,1.3402,1.3428,1.3431,1.3434,1.3495,0,0,1.3443,1.3444,0,0,0,0,0,0,0,0,1.3376,1.3381,1.3411,1.341,1.3409,1.3424,1.3432,1.3465,1.3409,1.3408,1.3404,1.3401,1.3429,1.3432,1.3441,1.3496,1.3497,1.3443,1.3445,1.3446,1.3447,0,0,0,0,0,0,0,1.3374,1.3379,1.3436,1.3412,1.341,1.34,1.3402,1.3438,1.343,1.3408,1.3405,1.3408,1.3428,1.3438,1.3441,1.3497,1.3443,1.3446,1.3447,1.3449,1.3606,1.3608,0,0,0,0,0,0,1.3374,1.3378,1.3435,1.3436,1.3387,1.3404,1.3406,1.3421,1.343,1.3429,1.341,1.3406,1.3434,1.3438,1.3442,1.3516,1.3446,1.3449,1.3451,1.3604,1.3607,1.3609,0,0,0,0,0,0,1.3372,1.3379,1.3434,1.3406,1.3413,1.3407,1.3425,1.3423,1.3433,1.3431,1.343,1.3422,1.3433,1.3438,1.3482,1.3516,1.345,1.3453,1.3601,1.3605,1.3608,1.3664,0,0,0,0,0,0,1.337,1.3379,1.3402,1.3407,1.3414,1.3473,1.3427,1.3425,1.3438,1.3433,1.3442,1.3441,1.3431,1.3478,1.3485,1.3519,1.3455,1.3598,1.3603,1.3607,1.3659,1.3669,1.3677,0,0,0,0,0,1.3368,1.3416,1.3403,1.341,1.3442,1.3475,1.348,1.3467,1.3441,1.3464,1.3463,1.3441,1.3511,1.3483,1.3491,1.3526,1.3596,1.3601,1.3606,1.3655,1.3667,1.3677,0,0,0,0,0,0,1.3415,1.3417,1.3402,1.3453,1.3465,1.3468,1.3497,1.3479,1.3499,1.3493,1.3477,1.3479,1.3528,1.3531,1.35,1.3587,1.3549,1.3556,1.3583,1.3595,1.3604,1.3602,1.3458,0,0,0,0,0,1.3431,1.3457,1.3458,1.3503,1.3509,1.3503,1.3516,1.3506,1.3517,1.3521,1.3524,1.3536,1.3561,1.3578,1.36,1.3659,1.3661,1.3687,1.3696,1.3703,1.371,1.3744,1.3756,1.3627,1.3627,1.3627,0,0,1.3465,1.3469,1.3487,1.3513,1.352,1.3549,1.3507,1.3538,1.356,1.3526,1.3569,1.3571,1.3584,1.3636,1.3659,1.3641,1.3746,1.371,1.3716,1.3719,1.375,1.3763,1.3774,1.363,1.363,1.3629,0,0,1.3543,1.3548,1.3587,1.3596,1.3607,1.3603,1.3612,1.3619,1.3619,1.3662,1.3638,1.3663,1.3706,1.3716,1.3727,1.381,1.3792,1.3818,1.3867,1.3899,1.391,1.3919,1.395,1.3962,1.3825,1.3825,1.3825,0,1.3584,1.3625,1.361,1.3644,1.3657,1.3627,1.3668,1.3677,1.3696,1.3706,1.3684,1.3739,1.3745,1.3801,1.3821,1.383,1.3842,1.3818,1.3909,1.3918,1.3926,1.3956,1.3968,1.3828,1.3828,1.3827,1.3827,0,1.3677,1.3706,1.3737,1.3756,1.3772,1.3809,1.38,1.3819,1.3807,1.3805,1.385,1.3856,1.388,1.3892,1.3881,1.3947,1.3935,1.3912,1.3874,1.3942,1.397,1.3981,1.3833,1.3832,1.3831,1.383,0,0,1.3784,1.3795,1.3807,1.3816,1.3828,1.3851,1.3887,1.3911,1.3928,1.3942,1.3974,1.4011,1.399,1.4002,1.3992,1.402,1.4088,1.3993,1.3993,1.4012,1.4164,1.4183,1.4197,1.4075,1.4077,1.4079,1.4164,0,1.3863,1.3925,1.3913,1.3975,1.4003,1.3976,1.4008,1.402,1.4019,1.4043,1.4042,1.407,1.4039,1.4047,1.4073,1.4074,1.4119,1.4068,1.4106,1.4107,1.4105,1.4211,1.4231,1.431,1.4174,1.4176,1.4177,0,1.3963,1.3981,1.4046,1.4055,1.4066,1.4095,1.4117,1.414,1.4153,1.415,1.4165,1.4149,1.4187,1.4148,1.4201,1.4166,1.4181,1.4184,1.4187,1.4191,1.4148,1.422,1.4335,1.4348,1.4194,1.4193,1.4192,0,1.4038,1.4078,1.4123,1.4131,1.4142,1.4163,1.4169,1.4179,1.4195,1.4214,1.4225,1.4248,1.4261,1.428,1.4272,1.4244,1.4328,1.4287,1.4328,1.4329,1.4348,1.4347,1.4469,1.4355,1.4355,1.4354,1.4354,0,1.4127,1.4169,1.4157,1.4185,1.4231,1.4216,1.4262,1.4265,1.4275,1.4303,1.4281,1.4308,1.4295,1.4322,1.4316,1.4362,1.4367,1.4368,1.4366,1.4371,1.4371,1.4381,1.4376,1.4357,1.4357,1.4356,1.4356,0,1.4219,1.4213,1.426,1.4266,1.4269,1.4303,1.4309,1.4336,1.4333,1.437,1.4378,1.4374,1.4405,1.4398,1.4432,1.4427,1.4486,1.4476,1.4482,1.448,1.4523,1.452,1.4657,1.4675,1.4547,1.4548,1.455,0,1.4278,1.4309,1.4319,1.4337,1.4344,1.4372,1.4389,1.4376,1.4394,1.4412,1.4437,1.4465,1.4488,1.4538,1.4539,1.4565,1.4557,1.4603,1.4561,1.4566,1.456,1.4559,1.4563,1.4613,1.4614,1.4615,1.4616,0,1.4384,1.4379,1.4403,1.4427,1.4447,1.4465,1.448,1.4496,1.4485,1.4507,1.4538,1.4555,1.459,1.4619,1.4643,1.465,1.4632,1.4629,1.4641,1.4647,1.465,1.4651,1.4507,1.4627,1.4626,1.4625,1.4624,1.4624,1.4462,1.449,1.4501,1.4529,1.454,1.4556,1.4582,1.4583,1.4608,1.4636,1.4626,1.4663,1.4676,1.4707,1.4716,1.4745,1.4728,1.4744,1.4748,1.4753,1.4759,1.4644,1.4749,1.4749,1.4749,1.4748,1.4748,0,1.4569,1.4575,1.4601,1.4624,1.4647,1.4627,1.4644,1.4664,1.4696,1.471,1.4733,1.477,1.4798,1.4802,1.4829,1.4852,1.4845,1.486,1.4859,1.4861,1.4772,1.476,1.4865,1.4865,1.4865,1.4865,1.4865,1.4865,1.4627,1.4673,1.467,1.4722,1.4728,1.4763,1.4774,1.4789,1.4801,1.4843,1.4866,1.4868,1.4879,1.4907,1.4933,1.4933,1.4946,1.4964,1.4962,1.4879,1.4867,1.4856,1.4845,1.4967,1.4967,1.5049,1.505,1.5051]},{"header":{"parameterUnit":"m.s-1","parameterCategory":1,"la1":30.2991,"la2":30.254,"lo1":-89.0895,"lo2":-89.0444,"dy":0.0017,"dx":0.0017,"nx":28,"ny":28,"refTime":"2025-07-22T21:00:00:Z","depth":0,"parameterNumber":3,"parameterNumberName":"V-component_of_WINDS"},"data":[0,0,0,0,0,0,0,0,0,0,0,0,0,0,0,0,0,0,0,0,0,0,0,0,0,0,0,0,0,0,0,0,0,0,0,0,0,0,0,0,0,0,0,0,0,0,0,0,0,0,0,0,0,0,0,0,0,0,-4.0066,-4.0066,0,-4.0056,-4.0056,-4.0056,-4.0047,-4.0047,-4.0047,-4.0047,-4.003,-4.003,-4.003,0,0,0,0,0,0,0,0,0,0,0,0,0,-4.0075,-4.0075,-4.0066,-4.0066,-4.0066,-4.0056,-4.0056,-4.0056,-4.0047,-4.0047,-4.0047,-4.0047,-4.0031,-4.003,-4.003,0,0,0,0,0,0,0,0,0,0,0,0,0,-4.0069,-4.0075,-4.0066,-4.0061,-4.006,-4.0056,-4.0056,-4.0056,-4.0047,-4.0047,-4.0047,-4.0047,-4.0031,-4.003,-4.003,-4.0029,0,0,-4.0028,-4.0028,0,0,0,0,0,0,0,0,-4.0069,-4.0068,-4.0062,-4.0061,-4.006,-4.0053,-4.0053,-4.0046,-4.0047,-4.0052,-4.0047,-4.0047,-4.0038,-4.0037,-4.0035,-4.0028,-4.0027,-4.0028,-4.0028,-4.0027,-4.0027,0,0,0,0,0,0,0,-4.007,-4.0069,-4.0062,-4.0062,-4.0061,-4.0058,-4.0057,-4.0052,-4.0045,-4.0051,-4.0051,-4.005,-4.0037,-4.0035,-4.0034,-4.0027,-4.0028,-4.0027,-4.0027,-4.0027,-4.0023,-4.0023,0,0,0,0,0,0,-4.0072,-4.0069,-4.0062,-4.0062,-4.0065,-4.0058,-4.0057,-4.0055,-4.0045,-4.0044,-4.005,-4.005,-4.0036,-4.0035,-4.0034,-4.0035,-4.0027,-4.0027,-4.0027,-4.0023,-4.0023,-4.0023,0,0,0,0,0,0,-4.0072,-4.0071,-4.0063,-4.0066,-4.0064,-4.0058,-4.0056,-4.0055,-4.0053,-4.0045,-4.0043,-4.005,-4.0036,-4.0034,-4.0031,-4.0034,-4.0027,-4.0026,-4.0022,-4.0023,-4.0023,-4.0035,0,0,0,0,0,0,-4.0072,-4.0071,-4.0071,-4.0066,-4.0064,-4.0062,-4.0057,-4.0055,-4.0053,-4.0052,-4.0044,-4.0042,-4.0036,-4.0032,-4.0031,-4.0033,-4.0026,-4.0022,-4.0023,-4.0023,-4.0034,-4.0035,-4.0037,0,0,0,0,0,-4.0073,-4.0072,-4.0071,-4.007,-4.0064,-4.0062,-4.0061,-4.0055,-4.0053,-4.0053,-4.0048,-4.0042,-4.0034,-4.0032,-4.003,-4.0032,-4.0022,-4.0022,-4.0023,-4.0034,-4.0035,-4.0037,0,0,0,0,0,0,-4.0075,-4.0071,-4.007,-4.0068,-4.0066,-4.006,-4.0059,-4.0057,-4.0053,-4.0052,-4.0044,-4.0042,-4.0041,-4.0036,-4.0034,-4.0033,-4.0027,-4.0027,-4.0036,-4.0037,-4.0039,-4.004,-4.0025,0,0,0,0,0,-4.0076,-4.0076,-4.0072,-4.0071,-4.007,-4.0066,-4.0064,-4.0061,-4.0057,-4.0055,-4.0049,-4.0045,-4.0042,-4.0039,-4.0035,-4.0034,-4.0033,-4.0034,-4.0036,-4.0037,-4.0037,-4.0039,-4.0041,-4.0025,-4.0025,-4.0025,0,0,-4.0076,-4.0075,-4.0074,-4.0072,-4.0069,-4.0069,-4.0064,-4.0063,-4.0062,-4.0054,-4.0052,-4.0048,-4.0042,-4.0042,-4.004,-4.0037,-4.0042,-4.0037,-4.0038,-4.0038,-4.004,-4.0041,-4.0043,-4.0025,-4.0025,-4.0025,0,0,-4.0078,-4.0076,-4.0077,-4.0076,-4.0074,-4.0072,-4.0072,-4.0068,-4.0066,-4.0065,-4.006,-4.0059,-4.0052,-4.005,-4.0047,-4.0053,-4.0049,-4.0052,-4.0058,-4.0061,-4.0062,-4.0063,-4.0067,-4.0069,-4.0052,-4.0052,-4.0052,0,-4.0079,-4.0079,-4.0077,-4.0078,-4.0078,-4.0074,-4.0075,-4.0073,-4.0069,-4.0069,-4.0066,-4.0061,-4.0056,-4.0056,-4.0059,-4.0056,-4.0057,-4.0053,-4.0062,-4.0063,-4.0064,-4.0068,-4.007,-4.0053,-4.0053,-4.0053,-4.0053,0,-4.0081,-4.0082,-4.0083,-4.0083,-4.0083,-4.0083,-4.0081,-4.0081,-4.0079,-4.0077,-4.0078,-4.0073,-4.007,-4.0069,-4.0065,-4.007,-4.0068,-4.0064,-4.0058,-4.0067,-4.007,-4.0072,-4.0054,-4.0054,-4.0053,-4.0053,0,0,-4.0081,-4.0084,-4.0084,-4.0086,-4.0086,-4.0086,-4.0087,-4.0088,-4.0089,-4.0087,-4.0088,-4.0086,-4.0083,-4.0081,-4.0077,-4.0079,-4.0088,-4.0075,-4.0075,-4.0079,-4.0095,-4.0099,-4.0101,-4.0085,-4.0085,-4.0085,-4.0096,0,-4.0084,-4.0088,-4.0089,-4.0092,-4.0094,-4.0093,-4.0095,-4.0095,-4.0094,-4.0095,-4.0093,-4.0092,-4.0088,-4.0087,-4.0089,-4.0086,-4.0091,-4.0085,-4.0086,-4.0086,-4.0089,-4.0102,-4.0106,-4.0116,-4.0097,-4.0098,-4.0098,0,-4.0086,-4.0089,-4.0094,-4.0098,-4.0099,-4.01,-4.0103,-4.0104,-4.0104,-4.0104,-4.0104,-4.0101,-4.0103,-4.0098,-4.0102,-4.0098,-4.0099,-4.0098,-4.0098,-4.0098,-4.0093,-4.0104,-4.0119,-4.0121,-4.01,-4.0099,-4.0099,0,-4.0088,-4.0093,-4.0098,-4.0099,-4.0103,-4.0105,-4.0106,-4.0107,-4.0108,-4.011,-4.0111,-4.0111,-4.0112,-4.0112,-4.011,-4.0107,-4.0115,-4.0109,-4.0115,-4.0115,-4.0116,-4.0116,-4.0133,-4.0115,-4.0115,-4.0115,-4.0115,0,-4.0091,-4.0095,-4.01,-4.0102,-4.0107,-4.0108,-4.0112,-4.0113,-4.0115,-4.0118,-4.0116,-4.0119,-4.0115,-4.0118,-4.0116,-4.0121,-4.012,-4.012,-4.012,-4.0121,-4.0121,-4.0121,-4.0121,-4.0115,-4.0115,-4.0115,-4.0115,0,-4.0093,-4.0097,-4.0102,-4.0108,-4.0109,-4.0113,-4.0116,-4.0119,-4.012,-4.0125,-4.0126,-4.0126,-4.013,-4.0128,-4.013,-4.0129,-4.0136,-4.0134,-4.0137,-4.0136,-4.0143,-4.0143,-4.0161,-4.0164,-4.0143,-4.0144,-4.0144,0,-4.0095,-4.0099,-4.0106,-4.011,-4.0113,-4.0117,-4.0121,-4.0122,-4.0125,-4.0129,-4.0132,-4.0136,-4.014,-4.0145,-4.0145,-4.0148,-4.0146,-4.0153,-4.0146,-4.0149,-4.0149,-4.0149,-4.0151,-4.0154,-4.0154,-4.0154,-4.0154,0,-4.0099,-4.0102,-4.0108,-4.0115,-4.012,-4.0125,-4.0129,-4.0132,-4.0134,-4.0138,-4.0144,-4.0147,-4.0152,-4.0156,-4.016,-4.016,-4.0158,-4.0157,-4.0159,-4.016,-4.0163,-4.0164,-4.0141,-4.0156,-4.0156,-4.0156,-4.0156,-4.0155,-4.0102,-4.0107,-4.0115,-4.0122,-4.0127,-4.0133,-4.0137,-4.0141,-4.0146,-4.0153,-4.0153,-4.016,-4.0164,-4.0169,-4.017,-4.0175,-4.0173,-4.0174,-4.0175,-4.0176,-4.0178,-4.0162,-4.0175,-4.0175,-4.0175,-4.0175,-4.0175,0,-4.0108,-4.0114,-4.0121,-4.013,-4.0137,-4.0138,-4.0144,-4.0149,-4.0156,-4.0161,-4.0166,-4.0174,-4.018,-4.0182,-4.0187,-4.0191,-4.0191,-4.0193,-4.0193,-4.0194,-4.0179,-4.0178,-4.0194,-4.0194,-4.0194,-4.0194,-4.0194,-4.0194,-4.0111,-4.0121,-4.0125,-4.0138,-4.0143,-4.0153,-4.0157,-4.0162,-4.0167,-4.0177,-4.0183,-4.0186,-4.0191,-4.0198,-4.0203,-4.0204,-4.0207,-4.0209,-4.021,-4.0196,-4.0194,-4.0192,-4.0191,-4.021,-4.021,-4.0224,-4.0224,-4.0224]}]]